This is the latest recevied weather packets stored in our database for station/object K8JCL-13. If no packets are shown the sender has not sent any weather packets the latest 10 day(s).
| Time | Temp. | Humidity | Pressure | Rain* | Wind** | Luminosity | Snow |
|---|---|---|---|---|---|---|---|
| 1778079787 | 11.67° C | 72% | 1012.6 hPa | 0 mm | - | 484 W/m² | - |
| 1778079484 | 11.67° C | 74% | 1012.5 hPa | 0 mm | - | 433 W/m² | - |
| 1778079180 | 11.11° C | 72% | 1012.4 hPa | 0 mm | - | 496 W/m² | - |
| 1778078878 | 11.67° C | 74% | 1012.5 hPa | 0 mm | - | 296 W/m² | - |
| 1778078574 | 11.11° C | 76% | 1012.7 hPa | 0 mm | - | 536 W/m² | - |
| 1778078272 | 10.56° C | 76% | 1012.4 hPa | 0 mm | - | 524 W/m² | - |
| 1778077969 | 10.56° C | 76% | 1012.4 hPa | 0 mm | - | 437 W/m² | - |
| 1778077668 | 10° C | 79% | 1012.2 hPa | 0 mm | - | 515 W/m² | - |
| 1778077365 | 10.56° C | 78% | 1012.7 hPa | 0 mm | - | 542 W/m² | - |
| 1778077063 | 10° C | 81% | 1012.2 hPa | 0 mm | - | 458 W/m² | - |
| 1778076761 | 10° C | 83% | 1012.2 hPa | 0 mm | - | 339 W/m² | - |
| 1778076459 | 9.44° C | 85% | 1012.2 hPa | 0 mm | - | 297 W/m² | - |
| 1778076155 | 9.44° C | 84% | 1012.4 hPa | 0 mm | - | 248 W/m² | - |
| 1778075852 | 9.44° C | 86% | 1012.7 hPa | 0 mm | - | 192 W/m² | - |
| 1778075548 | 8.89° C | 86% | 1012.6 hPa | 0 mm | - | 178 W/m² | - |
| 1778075245 | 8.89° C | 85% | 1012.5 hPa | 0 mm | - | 174 W/m² | - |
| 1778074942 | 8.89° C | 87% | 1012.5 hPa | 0 mm | - | 161 W/m² | - |
| 1778074639 | 8.89° C | 86% | 1012 hPa | 0 mm | - | 149 W/m² | - |
| 1778074336 | 8.89° C | 86% | 1012.1 hPa | 0 mm | - | 139 W/m² | - |
| 1778074033 | 8.33° C | 89% | 1012.2 hPa | 0 mm | - | 137 W/m² | - |
| 1778073730 | 8.33° C | 90% | 1012.1 hPa | 0 mm | - | 141 W/m² | - |
| 1778073428 | 8.33° C | 91% | 1011.9 hPa | 0 mm | - | 149 W/m² | - |
| 1778073123 | 8.33° C | 92% | 1011.8 hPa | 0 mm | - | 135 W/m² | - |
| 1778072820 | 7.78° C | 92% | 1012.2 hPa | 0 mm | - | 67 W/m² | - |
| 1778072517 | 8.33° C | 91% | 1012.1 hPa | 0 mm | - | 69 W/m² | - |
* Rain latest hour (hover to see other rain measurements)
** Current wind speed in m/s (hover to see current wind gust speed)